TIANWANG 1A (TW-1A)
1 40928U 15051D   19245.53889109  .00002929  00000-0  72658-4 0  9993
2 40928  97.1407 275.1594 0011586 149.3281 314.4980 15.41092254220854
LAPAN A2
1 40931U 15052B   19245.40259071  .00000619  00000-0 -28585-5 0  9999
2 40931   5.9960 236.7152 0012298 146.0422 214.0504 14.76612064212474
LQSAT
1 40958U 15057A   19245.50497884  .00000001  00000-0  78795-5 0  9992
2 40958  97.8931 312.6317 0018120   2.7442 357.3862 14.73087155209960
CHUBUSAT 2
1 41338U 16012B   19244.81247790 +.00000328 +00000-0 +18837-4 0  9991
2 41338 031.0040 027.3611 0013588 127.5044 232.6828 15.00171841194202
CHUBUSAT 3
1 41339U 16012C   19245.43850013  .00000235  00000-0  11499-4 0  9993
2 41339  31.0115  21.3778 0013320 140.9508 219.2100 15.00345427194298
OUFTI-1
1 41458U 16025C   19245.20692800  .00003636  00000-0  18581-3 0  9998
2 41458  98.1009 335.8915 0167349 103.1521 258.8437 15.05970579183937
E-STAR-2
1 41459U 16025D   19245.50733915  .00001663  00000-0  87779-4 0  9999
2 41459  98.1040 335.8289 0169173 103.6045 258.4124 15.05602039183954
AAUSAT 4
1 41460U 16025E   19245.52020971  .00002880  00000-0  14604-3 0  9992
2 41460  98.0967 337.2726 0158252  95.5159 266.4181 15.07545434184091
NUSAT 1
1 41557U 16033B   19245.52152945  .00001436  00000-0  56287-4 0  9995
2 41557  97.4167 332.5814 0014668  36.0729 324.1497 15.27337205181663
BEESAT 4
1 41619U 16040W   19244.73475454  .00001438  00000-0  63521-4 0  9998
2 41619  97.3614 305.5406 0012910 116.3741 243.8823 15.23255273165289
PRATHAM
1 41783U 16059A   19244.76389500  .00000063  00000-0  21409-4 0  9991
2 41783  98.0610 302.6631 0034401 146.1768 214.1638 14.63006434156520
ALSAT 1N
1 41789U 16059G   19245.44018446  .00000031  00000-0  14806-4 0  9999
2 41789  98.0642 305.4839 0029383 133.3193 227.0475 14.64257909156736
NAYIF 1
1 42017U 17008BX  19244.86414500 +.00001556 +00000-0 +63975-4 0  9999
2 42017 097.3977 311.1672 0004515 261.9141 098.1585 15.25668712141384
MAX VALIER SAT
1 42778U 17036P   19245.39572657  .00001070  00000-0  49669-4 0  9996
2 42778  97.3480 301.3709 0011198 325.2754  34.7750 15.22107762121757
